Location: Hains Lake
(37.8540°N, 99.8578°W)
Time: 03:37:25
(UTC+00:00)

Vanguard 1 - Pass Details

Date: 03 December 2021
Orbit: 652 x 3830 km, 34.2° (Epoch: 21 January)

Event Time Altitude Azimuth Distance (km) Brightness Sun altitude
Exits shadow 11:47:30 26° 274° (W) 5,169 13.1 -21.4°
Maximum altitude 12:00:22 60° 208° (SSW) 2,953 12.3 -18.9°
Drops below altitude 10° 12:12:06 10° 131° (SE) 4,127 14.2 -16.6°
Sets 12:14:44 0° 127° (SE) 4,795 14.9 -16.1°
